| time (UTC) | temp F | wind direction | speed knots | gust knots | rain 1hr in | rain 24hr in | rain mn in | humidity % | barometer mb |
| 20260505194532 | 55 | 52 | 0.9 | 3.5 | 0.00 | 0.35 | 0.35 | 87 | 1013.2 |
| 20260505193031 | 55 | 56 | 1.7 | 5.2 | 0.00 | 0.35 | 0.35 | 86 | 1013.0 |
| 20260505191535 | 56 | 56 | 1.7 | 5.2 | 0.00 | 0.35 | 0.35 | 85 | 1012.8 |
| 20260505190045 | 56 | 60 | 5.2 | 7.0 | 0.00 | 0.35 | 0.35 | 84 | 1012.6 |
| 20260505184532 | 57 | 58 | 1.7 | 3.5 | 0.00 | 0.37 | 0.35 | 83 | 1012.5 |
| 20260505183042 | 57 | 69 | 1.7 | 2.6 | 0.00 | 0.37 | 0.35 | 81 | 1012.5 |
| 20260505181532 | 57 | 0 | 0.0 | 1.7 | 0.00 | 0.37 | 0.35 | 80 | 1012.5 |
| 20260505180032 | 58 | 53 | 0.0 | 2.6 | 0.00 | 0.37 | 0.35 | 80 | 1012.5 |
| 20260505174534 | 58 | 60 | 0.9 | 1.7 | 0.00 | 0.46 | 0.35 | 79 | 1012.4 |
| 20260505173038 | 58 | 40 | 0.9 | 2.6 | 0.00 | 0.46 | 0.35 | 78 | 1012.6 |
| 20260505171534 | 58 | 145 | 0.9 | 2.6 | 0.00 | 0.46 | 0.35 | 77 | 1012.6 |
| 20260505170035 | 58 | 57 | 1.7 | 3.5 | 0.00 | 0.46 | 0.35 | 77 | 1012.5 |
| 20260505164530 | 59 | 71 | 0.9 | 1.7 | 0.00 | 0.46 | 0.35 | 77 | 1012.7 |
| 20260505163033 | 59 | 55 | 0.9 | 2.6 | 0.00 | 0.46 | 0.35 | 76 | 1012.8 |
| 20260505161533 | 59 | 200 | 1.7 | 2.6 | 0.00 | 0.46 | 0.35 | 75 | 1012.8 |
| 20260505153031 | 59 | 170 | 0.0 | 2.6 | 0.00 | 0.46 | 0.35 | 75 | 1012.8 |
| 20260505151529 | 59 | 152 | 1.7 | 2.6 | 0.00 | 0.46 | 0.35 | 76 | 1012.9 |
| 20260505124539 | 57 | 59 | 0.9 | 3.5 | 0.00 | 0.46 | 0.35 | 82 | 1013.8 |
| 20260505123033 | 56 | 63 | 1.7 | 3.5 | 0.00 | 0.46 | 0.35 | 81 | 1013.9 |
| 20260505121534 | 56 | 0 | 0.0 | 0.9 | 0.00 | 0.46 | 0.35 | 83 | 1013.9 |
| 20260505120038 | 55 | 281 | 0.9 | 1.7 | 0.00 | 0.46 | 0.35 | 83 | 1014.2 |
| 20260505114531 | 56 | 0 | 0.0 | 0.9 | 0.00 | 0.46 | 0.35 | 84 | 1014.2 |
| 20260505113033 | 55 | 314 | 0.0 | 2.6 | 0.00 | 0.46 | 0.35 | 84 | 1014.2 |
| 20260505111531 | 55 | 270 | 0.9 | 1.7 | 0.00 | 0.46 | 0.35 | 83 | 1014.3 |
| 20260505101539 | 53 | 217 | 1.7 | 2.6 | 0.00 | 0.46 | 0.35 | 87 | 1014.5 |
| 20260505100035 | 53 | 0 | 0.9 | 2.6 | 0.00 | 0.46 | 0.35 | 89 | 1014.4 |
| 20260505094534 | 53 | 272 | 1.7 | 2.6 | 0.00 | 0.46 | 0.35 | 89 | 1014.4 |
| 20260505093031 | 53 | 219 | 0.9 | 3.5 | 0.00 | 0.46 | 0.35 | 89 | 1014.4 |
| 20260505091534 | 52 | 252 | 1.7 | 3.5 | 0.00 | 0.46 | 0.35 | 89 | 1014.5 |
| 20260505090029 | 52 | 287 | 0.9 | 3.5 | 0.00 | 0.46 | 0.35 | 89 | 1014.3 |
| 20260505084542 | 52 | 233 | 1.7 | 3.5 | 0.00 | 0.46 | 0.35 | 89 | 1014.3 |
| 20260505083033 | 52 | 235 | 1.7 | 3.5 | 0.00 | 0.46 | 0.35 | 89 | 1014.2 |
| 20260505081534 | 53 | 243 | 1.7 | 2.6 | 0.00 | 0.46 | 0.35 | 89 | 1014.0 |
| 20260505080030 | 52 | 223 | 1.7 | 3.5 | 0.00 | 0.46 | 0.35 | 89 | 1014.0 |
| 20260505074534 | 52 | 162 | 0.9 | 2.6 | 0.02 | 0.46 | 0.35 | 88 | 1013.9 |
| 20260505073040 | 52 | 204 | 0.9 | 2.6 | 0.02 | 0.46 | 0.35 | 88 | 1013.9 |
| 20260505071533 | 52 | 220 | 0.0 | 1.7 | 0.01 | 0.45 | 0.34 | 88 | 1013.8 |
| 20260505070040 | 52 | 225 | 0.0 | 3.5 | 0.01 | 0.45 | 0.34 | 87 | 1014.0 |
| 20260505064534 | 52 | 0 | 0.0 | 1.7 | 0.00 | 0.44 | 0.33 | 85 | 1013.8 |
| 20260505063030 | 52 | 333 | 0.9 | 3.5 | 0.00 | 0.44 | 0.33 | 86 | 1013.6 |
| 20260505061539 | 52 | 319 | 1.7 | 6.1 | 0.01 | 0.44 | 0.33 | 86 | 1013.7 |
| 20260505060034 | 51 | 337 | 4.3 | 7.8 | 0.04 | 0.44 | 0.33 | 87 | 1013.5 |
| 20260505054537 | 51 | 316 | 3.5 | 5.2 | 0.09 | 0.44 | 0.33 | 89 | 1013.6 |
| 20260505053033 | 51 | 13 | 2.6 | 5.2 | 0.13 | 0.43 | 0.32 | 90 | 1013.6 |
| 20260505051533 | 50 | 0 | 0.0 | 0.0 | 0.17 | 0.42 | 0.31 | 90 | 1013.7 |
| 20260505041548 | 51 | 240 | 0.0 | 1.7 | 0.11 | 0.24 | 0.13 | 89 | 1014.2 |
| 20260505040040 | 51 | 0 | 0.0 | 0.0 | 0.07 | 0.20 | 0.09 | 89 | 1014.3 |
| 20260505034533 | 51 | 0 | 0.0 | 2.6 | 0.03 | 0.15 | 0.04 | 88 | 1014.1 |
| 20260505033034 | 52 | 238 | 0.0 | 2.6 | 0.01 | 0.14 | 0.03 | 87 | 1014.0 |
| 20260505031541 | 52 | 242 | 0.0 | 1.7 | 0.00 | 0.13 | 0.02 | 87 | 1014.0 |
| 20260505030032 | 52 | 209 | 0.9 | 4.3 | 0.00 | 0.12 | 0.01 | 85 | 1014.3 |
| 20260505024538 | 52 | 240 | 0.9 | 3.5 | 0.00 | 0.12 | 0.01 | 84 | 1014.2 |
| 20260505023031 | 53 | 146 | 2.6 | 5.2 | 0.00 | 0.12 | 0.01 | 83 | 1014.2 |
| 20260505021535 | 53 | 139 | 0.9 | 3.5 | 0.00 | 0.12 | 0.01 | 80 | 1014.2 |
| 20260505020032 | 53 | 0 | 0.0 | 2.6 | 0.00 | 0.12 | 0.01 | 78 | 1014.2 |
| 20260505014541 | 53 | 318 | 1.7 | 4.3 | 0.00 | 0.12 | 0.01 | 79 | 1014.2 |
| 20260505013038 | 52 | 314 | 1.7 | 5.2 | 0.00 | 0.12 | 0.01 | 81 | 1014.2 |
| 20260505011530 | 53 | 304 | 1.7 | 4.3 | 0.01 | 0.12 | 0.01 | 82 | 1014.6 |
| 20260505010033 | 53 | 333 | 1.7 | 2.6 | 0.01 | 0.12 | 0.01 | 86 | 1015.2 |
| 20260505004538 | 53 | 0 | 0.0 | 1.7 | 0.01 | 0.12 | 0.01 | 85 | 1015.7 |
| 20260505003032 | 53 | 352 | 0.9 | 2.6 | 0.00 | 0.11 | 0.00 | 84 | 1015.9 |
| 20260505001533 | 53 | 210 | 0.0 | 2.6 | 0.00 | 0.11 | 0.00 | 83 | 1016.1 |
| 20260505000038 | 54 | 0 | 0.0 | 0.9 | 0.00 | 0.11 | 0.00 | 82 | 1016.1 |
| 20260504234536 | 54 | 0 | 0.0 | 0.9 | 0.00 | 0.11 | 0.00 | 81 | 1016.4 |
| 20260504233041 | 54 | 219 | 0.0 | 1.7 | 0.00 | 0.11 | 0.00 | 80 | 1016.4 |
| 20260504231534 | 55 | 162 | 0.9 | 3.5 | 0.00 | 0.11 | 0.00 | 79 | 1016.6 |
| 20260504230035 | 55 | 52 | 1.7 | 6.1 | 0.00 | 0.11 | 0.00 | 80 | 1016.8 |
| 20260504224537 | 55 | 214 | 0.9 | 4.3 | 0.00 | 0.11 | 0.00 | 79 | 1017.0 |
| 20260504223052 | 54 | 160 | 0.9 | 3.5 | 0.00 | 0.11 | 0.00 | 78 | 1016.8 |
| 20260504221536 | 54 | 205 | 2.6 | 2.6 | 0.00 | 0.11 | 0.00 | 78 | 1016.8 |
| 20260504220041 | 55 | 253 | 0.9 | 4.3 | 0.00 | 0.11 | 0.00 | 72 | 1017.1 |
| 20260504214532 | 56 | 296 | 2.6 | 5.2 | 0.00 | 0.11 | 0.11 | 69 | 1017.3 |
| 20260504213045 | 55 | 170 | 0.0 | 7.8 | 0.00 | 0.11 | 0.11 | 74 | 1017.7 |
| 20260504211535 | 56 | 307 | 3.5 | 9.6 | 0.00 | 0.11 | 0.11 | 66 | 1017.5 |
| 20260504210038 | 56 | 316 | 4.3 | 11.3 | 0.00 | 0.11 | 0.11 | 68 | 1017.5 |
| 20260504204542 | 55 | 321 | 4.3 | 8.7 | 0.00 | 0.11 | 0.11 | 70 | 1017.6 |
| 20260504203036 | 55 | 307 | 4.3 | 11.3 | 0.00 | 0.11 | 0.11 | 70 | 1017.7 |
| 20260504201531 | 55 | 356 | 6.1 | 10.4 | 0.00 | 0.11 | 0.11 | 72 | 1017.9 |
| 20260504200029 | 54 | 316 | 5.2 | 12.2 | 0.00 | 0.11 | 0.11 | 73 | 1017.8 |